Regional Weather Roundup
Issued by NWS

Home | Current Version | Previous Version | Text Only | Print | Product List | Glossary Off
Versions: 1 2 3 4 5 6 7 8 9 10 11 12 13 14 15 16 17 18 19 20 21 22 23 24 25 26 27 28 29 30 31 32 33 34 35 36 37 38 39 40 41 42 43 44 45 46 47 48 49 50

304
ASUS43 KLOT 190703
RWRIL

ILLINOIS REGIONAL WEATHER ROUNDUP
NATIONAL WEATHER SERVICE CHICAGO/ROMEOVILLE IL
200 AM CDT THU APR 19 2018

NOTE: "FAIR" INDICATES FEW OR NO CLOUDS BELOW 12,000 FEET WITH NO
SIGNIFICANT WEATHER AND/OR OBSTRUCTIONS TO VISIBILITY.

* THESE STATIONS ARE NOT UNDER NWS QUALITY CONTROL. THEY ALSO MAY NOT
  REPORT WEATHER SUCH AS PRECIPITATION OR FOG.

ILZ001-002-007-009-015-016-024-190800-
NORTHWEST ILLINOIS

CITY           SKY/WX    TMP DP  RH WIND       PRES   REMARKS
MOLINE         CLOUDY    34  31  88 NW10      30.13R WCI  26
STERLING*      LGT RAIN N/A N/A N/A MISG        N/A
SAVANNA*       CLOUDY    33  31  92 NW9       30.12R WCI  25
$$

ILZ003-004-008-010-011-017-018-190800-
NORTH CENTRAL ILLINOIS

CITY           SKY/WX    TMP DP  RH WIND       PRES   REMARKS
ROCKFORD       CLOUDY    33  30  88 N10       30.09R WCI  25
FREEPORT*      CLOUDY    32  30  93 NW9       30.11R WCI  24
ROCHELLE*      CLOUDY    32  32  97 N14       30.06R WCI  22
DE KALB*       CLOUDY    32  32  99 N13       30.04R WCI  23
PERU*          MOCLDY    34  32  93 NW13      30.07R WCI  25
$$

ILZ005-006-012>014-019>023-190800-
NORTHEAST ILLINOIS

CITY           SKY/WX    TMP DP  RH WIND       PRES   REMARKS
CHICAGO-OHARE  LGT SNOW  32  32 100 N12       30.00R FOG     WCI  23
CHICAGO-MIDWAY LGT SNOW  34  34 100 N8        30.00R FOG     WCI  27
AURORA         CLOUDY    33  32  96 N14       30.02R WCI  23
LANSING*       LGT SNOW  33  33 100 N8        29.99R WCI  26
JOLIET*        LGT SNOW  34  33  97 NW6       30.02R WCI  29
WAUKEGAN       CLOUDY    34  33  96 N8        30.03R WCI  27
DUPAGE AIRPORT CLOUDY    33  33 100 N14       30.01R WCI  23
KANKAKEE*      LGT RAIN  32  32  99 NW12      30.00R WCI  23
WHEELING       CLOUDY    35  33  92 N17G25    30.04R WCI  25
MORRIS*        LGT SNOW  33  32  96 NW9       30.02R WCI  25
ROMEOVILLE*    LGT SNOW  32  32  99 N10       30.01R WCI  24
NORTHERLY ISL    N/A     35  33  92 N14         N/A  WCI  26
$$

LMZ740>746-190800-
SOUTHERN LAKE MICHIGAN

STATION/POSITION SKY/WX   TEMP    WIND        PRES    VSBY  WAVE
                          AIR SEA DIR/SP/G                  HT/PER
                          (F)     (DEG/KT/KT) (MB)    (MI)  (FT/S)
HARRISON CRIB              36      10/ 22/ 23   N/A
BURNHAM HARBOR             35      10/ 13/ 20   N/A
CALUMET HARBOR             35     350/ 16/ 22 1014.9R
BURNS HARBOR               35      10/ 22/ 26 1014.6R
MICHIGAN CITY              35      10/ 26/ 30   N/A
$$

ILZ025>027-034>036-040-047-049-050-058-095>099-190800-
WEST-CENTRAL ILLINOIS

CITY           SKY/WX    TMP DP  RH WIND       PRES   REMARKS
QUINCY         CLOUDY    34  26  72 NW13      30.16R WCI  25
MACOMB*        CLOUDY    33  29  87 NW13      30.16R WCI  23
JACKSONVILLE*  CLOUDY    33  27  79 NW13      30.13R WCI  23
PITTSFIELD*    CLOUDY    35  28  73 NW18      30.16R WCI  25
$$

ILZ028>032-037-038-041>044-048-051>054-059>061-190800-
CENTRAL ILLINOIS

CITY           SKY/WX    TMP DP  RH WIND       PRES   REMARKS
PONTIAC        CLOUDY    33  33  99 NW16G22   30.05R WCI  23
BLOOMINGTON    CLOUDY    32  29  88 NW16      30.06R WCI  21
DECATUR        CLOUDY    34  30  85 NW13G23   30.07R WCI  25
PEORIA         CLOUDY    34  29  82 NW12      30.10R WCI  25
LACON*         CLOUDY    33  31  95 NW10      30.08R WCI  24
LINCOLN*       CLOUDY    34  32  91 NW6       30.09R WCI  29
SPRINGFIELD    CLOUDY    36  29  75 NW16G22   30.11R WCI  26
TAYLORVILLE    CLOUDY    34  29  80 NW14G20   30.10R WCI  25
$$

ILZ033-039-045-046-055>057-062-063-190800-
EAST-CENTRAL ILLINOIS

CITY           SKY/WX    TMP DP  RH WIND       PRES   REMARKS
CHAMPAIGN      CLOUDY    34  31  88 NW20G28   30.03S WCI  23
DANVILLE*      CLOUDY    33  31  92 W18       29.98R WCI  22
RANTOUL*       CLOUDY    35  32  88 NW16G26   30.02R WCI  25
MATTOON        CLOUDY    34  30  85 NW20G25   30.05R WCI  23
PARIS*         CLOUDY    34  32  93 W15G21    30.03R WCI  24
$$

ILZ079-100>102-190800-
SOUTHWEST ILLINOIS

CITY           SKY/WX    TMP DP  RH WIND       PRES   REMARKS
ALTON          CLOUDY    37  26  66 NW14      30.14R WCI  28
BELLEVILLE     CLOUDY    39  23  51 NW17G24   30.12R WCI  30
CAHOKIA*       CLOUDY    40  23  50 NW17G28   30.14R
SPARTA*        CLOUDY    39  26  58 NW17G28   30.13R WCI  30
$$

ILZ064>066-069>071-074>076-080>082-084>086-088>090-092>094-190800-
SOUTH-CENTRAL ILLINOIS

CITY           SKY/WX    TMP DP  RH WIND       PRES   REMARKS
CARBONDALE     CLOUDY    41  25  53 NW18G25   30.11R
CAIRO*         CLOUDY    44  29  55 N17       30.11R
EFFINGHAM*     CLOUDY    37  29  73 NW16G22   30.09R WCI  28
MARION         CLOUDY    41  24  50 NW9       30.12R
MT. VERNON     CLOUDY    39  25  57 VRB5G20   30.10R
CENTRALIA*     CLOUDY    39  29  65 NW17G24   30.10R WCI  30
SALEM*         CLOUDY    39  28  63 NW15G23   30.10R WCI  31
METROPOLIS*    CLOUDY    45  28  52 NW14G23   30.11R
$$

ILZ067-068-072-073-078-083-087-091-190800-
SOUTHEAST ILLINOIS

CITY           SKY/WX    TMP DP  RH WIND       PRES   REMARKS
LAWRENCEVILLE  CLOUDY    40  28  62 NW20      30.05R
FLORA*         CLOUDY    39  28  64 NW15G24   30.09R WCI  31
FAIRFIELD*     CLOUDY    39  26  58 NW8G16    30.08R WCI  34
HARRISBURG*    CLOUDY    42  28  57 NW21G28   30.10R
ROBINSON*      CLOUDY    36  29  76 NW15G26   30.06R WCI  26
CARMI*         CLOUDY    41  30  65 NW21      30.07S
$$

ABBREVIATIONS USED IN REMARKS
   TC - TEMPERATURE IN CELSIUS
  WCI - WIND CHILL INDEX
   HX - HEAT INDEX
  VSB - VISIBILITY
$$





USA.gov is the U.S. government's official web portal to all federal, state and local government web resources and services.